TIANLIAN 1-04 (41869 NORAD) Tracking and Keplerian Element Data

This shows tracking and keplerian element data for the satellite.

Feedback or suggestion? Click here.




ElementValue
Catalog41869
NameTIANLIAN 1-04
Epoch Orbit2917
Epoch Day286.7981064
Epoch Year2024
RAAN94.756
Inclination0.1189
Eccentricity0.0036475
Argument of Perigee68.1587
Mean Anonmoly323.143
Mean Motion1.00275507
Decay Rate3.2E-07
L11 41869U 16072A 24286.79810640 .00000032 00000+0 00000+0 0 9994
L22 41869 0.1189 94.7560 0036475 68.1587 323.1430 1.00275507 29172



Live tracking and technical data element details for TIANLIAN 1-04 (NORAD 41869). TIANLIAN 1-04 can be tracked NOW for your location showing map with azimuth and elevation plus other details from your city location.







IsCatalogInMostPopularTable: catalog: 41869, numindb: 596
Update: records affected: 1



GetName: 41869 TIANLIAN 1-04

Hit Count: updated at: Tue, 03 Dec 2024 02:25:40 GMT